This demonstration page uses our WeatherBlox Daily Observations layout. Learn more.

Left ArrowRight Arrow

47.50024, -111.30081

Hourly Observations for March 1, 2015

Temp ( °F °C ) Dew Point ( °F °C ) Humidity (%) Winds ( mph kmh ) Pressure ( in mb ) Visibility ( mi km ) Precip ( " mm )
12:53 am 00:53 Clear 10 -12.2 5 -15 80 80 SSW 8 13 30.45 1031 10 16 0.00 0.00
1:53 am 01:53 Mostly Cloudy 15 -9.4 9 -12.8 77 77 SSW 8 13 30.45 1031 10 16 0.00 0.00
2:53 am 02:53 Cloudy 16 -8.9 9 -12.8 74 74 SW 9 15 30.44 1031 10 16 0.00 0.00
3:53 am 03:53 Cloudy 17 -8.3 8 -13.3 68 68 SSW 12 19 30.43 1031 10 16 0.00 0.00
4:53 am 04:53 Mostly Cloudy 16 -8.9 8 -13.3 71 71 SSW 10 17 30.43 1031 10 16 0.00 0.00
5:53 am 05:53 Clear 12 -11.1 7 -13.9 80 80 SSW 9 15 30.45 1031 10 16 0.00 0.00
6:53 am 06:53 Clear 12 -11.1 7 -13.9 80 80 SSW 10 17 30.45 1031 10 16 0.00 0.00
7:53 am 07:53 Sunny 16 -8.9 9 -12.8 74 74 SSW 12 19 30.43 1031 10 16 0.00 0.00
8:53 am 08:53 Sunny 20 -6.7 10 -12.2 65 65 SSW 14 22 30.42 1030 10 16 0.00 0.00
9:53 am 09:53 Sunny 25 -3.9 11 -11.7 55 55 S 16 26 30.40 1030 10 16 0.00 0.00
10:53 am 10:53 Sunny 28 -2.2 11 -11.7 49 49 SSW 15 24 30.38 1029 10 16 0.00 0.00
11:53 am 11:53 Sunny 30 -1 12 -11 47 47 S 15 24 30.30 1026 10 16 0.00 0.00
12:53 pm 12:53 Sunny 34 1.1 12 -11.1 40 40 SSW 16 26 30.32 1027 10 16 0.00 0.00
1:53 pm 13:53 Sunny 34 1.1 11 -11.7 38 38 S 16 26 30.26 1025 10 16 0.00 0.00
2:53 pm 14:53 Sunny 35 1.7 10 -12.2 35 35 S 16 26 30.22 1024 10 16 0.00 0.00
3:53 pm 15:53 Sunny 34 1.1 9 -12.8 35 35 SSW 13 20 30.20 1023 10 16 0.00 0.00
4:53 pm 16:53 Sunny 33 0.6 10 -12.2 38 38 S 17 28 30.16 1022 10 16 0.00 0.00
5:53 pm 17:53 Sunny 30 -1.1 11 -11.7 45 45 S 14 22 30.16 1021 10 16 0.00 0.00
6:53 pm 18:53 Clear 29 -1.7 10 -12.2 45 45 S 12 19 30.13 1020 10 16 0.00 0.00
7:53 pm 19:53 Clear 30 -1.1 10 -12.2 43 43 SSW 18 30 30.10 1019 10 16 0.00 0.00
8:53 pm 20:53 Clear 30 -1.1 10 -12.2 43 43 SSW 17 28 30.06 1018 10 16 0.00 0.00
9:53 pm 21:53 Clear 29 -1.7 9 -12.8 43 43 S 13 20 30.04 1017 10 16 0.00 0.00
10:53 pm 22:53 Clear 30 -1.1 10 -12.2 43 43 SSW 14 22 30.00 1016 10 16 0.00 0.00
11:53 pm 23:53 Cloudy 30 -1.1 10 -12.2 43 43 SSW 20 31 29.96 1015 10 16 0.00 0.00

Powered by AerisWeather